This is the latest recevied weather packets stored in our database for station/object AB0TJ. If no packets are shown the sender has not sent any weather packets the latest 10 day(s).
| Time | Temp. | Humidity | Pressure | Rain* | Wind** | Luminosity | Snow |
|---|---|---|---|---|---|---|---|
| 1777619869 | 10.56° C | 42% | 1017.3 hPa | 0 mm | - | 0 W/m² | - |
| 1777619272 | 11.11° C | 42% | 1017.3 hPa | 0 mm | - | 0 W/m² | - |
| 1777618729 | 10.56° C | 41% | 1017.5 hPa | 0 mm | - | 0 W/m² | - |
| 1777618194 | 10.56° C | 41% | 1017.3 hPa | 0 mm | - | 0 W/m² | - |
| 1777617684 | 11.11° C | 40% | 1017.5 hPa | 0 mm | - | 0 W/m² | - |
| 1777617116 | 11.11° C | 40% | 1017.3 hPa | 0 mm | - | 0 W/m² | - |
| 1777616620 | 11.11° C | 39% | 1017.4 hPa | 0 mm | - | 0 W/m² | - |
| 1777616109 | 11.11° C | 39% | 1017.3 hPa | 0 mm | - | 0 W/m² | - |
| 1777615529 | 11.11° C | 39% | 1017.3 hPa | 0 mm | - | 0 W/m² | - |
| 1777614959 | 11.11° C | 38% | 1017.4 hPa | 0 mm | - | 0 W/m² | - |
| 1777614464 | 11.11° C | 39% | 1017.1 hPa | 0 mm | - | 0 W/m² | - |
| 1777613903 | 10.56° C | 41% | 1017.3 hPa | 0 mm | - | 0 W/m² | - |
| 1777613313 | 10° C | 43% | 1017.2 hPa | 0 mm | - | 0 W/m² | - |
| 1777612722 | 10° C | 45% | 1017.3 hPa | 0 mm | - | 0 W/m² | - |
| 1777612159 | 10.56° C | 43% | 1017.1 hPa | 0 mm | - | 0 W/m² | - |
| 1777611664 | 11.11° C | 42% | 1017 hPa | 0 mm | - | 0 W/m² | - |
| 1777611079 | 11.67° C | 40% | 1017.2 hPa | 0 mm | - | 0 W/m² | - |
| 1777610505 | 11.67° C | 41% | 1016.9 hPa | 0 mm | - | 0 W/m² | - |
| 1777609989 | 11.67° C | 41% | 1017.3 hPa | 0 mm | - | 0 W/m² | - |
| 1777609420 | 11.67° C | 41% | 1016.6 hPa | 0 mm | - | 0 W/m² | - |
| 1777608874 | 12.22° C | 40% | 1016.8 hPa | 0 mm | - | 0 W/m² | - |
| 1777608309 | 12.22° C | 39% | 1016.6 hPa | 0 mm | - | 0 W/m² | - |
| 1777607719 | 12.78° C | 39% | 1016.3 hPa | 0 mm | - | 0 W/m² | - |
| 1777607235 | 12.78° C | 39% | 1016.3 hPa | 0 mm | - | 0 W/m² | - |
| 1777606653 | 12.78° C | 39% | 1015.8 hPa | 0 mm | - | 0 W/m² | - |
* Rain latest hour (hover to see other rain measurements)
** Current wind speed in m/s (hover to see current wind gust speed)